Regional Weather Roundup
Issued by NWS

Home | Current Version | Previous Version | Graphics & Text | Print | Product List | Glossary Off
Versions: 1 2 3 4 5 6 7 8 9 10 11 12 13 14 15 16 17 18 19 20 21 22 23 24 25 26 27 28 29 30 31 32 33 34 35 36 37 38 39 40 41 42 43 44 45 46 47 48 49 50

000
ASUS43 KTOP 222259
RWRKS

WEATHER ROUNDUP FOR KANSAS
NATIONAL WEATHER SERVICE GOODLAND KS
600 PM CDT SAT JUL 22 2017

NOTE:  "FAIR" INDICATES FEW OR NO CLOUDS BELOW 12,000 FEET WITH NO
SIGNIFICANT WEATHER AND/OR OBSTRUCTIONS TO VISIBILITY.

KSZ001>006-013>018-027>032-041>047-230000-
NORTHWEST KANSAS

CITY           SKY/WX    TMP DP  RH WIND       PRES   REMARKS
GOODLAND       CLOUDY    85  45  24 NE16G23   30.03F
HAYS           MOSUNNY   84  67  56 N28G43    29.86R
HILL CITY      CLOUDY    86  62  44 NE20G26   29.98R THUNDER
RUSSELL        SUNNY     98  59  27 N29G38    29.82R HX  98
$$

KSZ061>065-074>080-084>089-230000-
SOUTHWEST KANSAS

CITY           SKY/WX    TMP DP  RH WIND       PRES   REMARKS
DODGE CITY     SUNNY    101  50  18 NW8       29.88F HX  98
GARDEN CITY    SUNNY     98  56  24 NW12      29.91F HX  96
LIBERAL        SUNNY     99  57  24 W5        29.90F HX  98
$$

KSZ066>073-081>083-090>101-230000-
SOUTHEAST KANSAS

CITY           SKY/WX    TMP DP  RH WIND       PRES   REMARKS
CHANUTE        MOSUNNY  100  73  41 S15G22    29.81F HX 110
COFFEYVILLE    SUNNY     99  74  44 S10       29.81F HX 110
HUTCHINSON     SUNNY    106  55  18 S12       29.77F HX 105
MEDICINE LODGE   N/A    103  55  20 S15       29.79F HX 101
NEWTON         SUNNY    105  60  22 S10       29.79F HX 106
PARSONS        SUNNY     97  74  47 S8        29.82F HX 108
WICHITA INTL   MOSUNNY  104  61  24 S13G21    29.78F HX 105
WICHITA JABRA  SUNNY    103  61  25 S14       29.79F HX 104
WINFIELD       SUNNY    102  65  29 S14       29.81F HX 105
$$

KSZ007>012-019>026-033>040-048>060-102>105-230000-
NORTHEAST KANSAS

CITY           SKY/WX    TMP DP  RH WIND       PRES   REMARKS
CONCORDIA      SUNNY     89  75  63 N14       29.84S HX  99
EMPORIA        SUNNY    100  67  33 S12       29.77F HX 105
LAWRENCE       SUNNY     97  78  54 E3        29.77F HX 114
MANHATTAN      SUNNY    100  72  40 CALM      29.76S HX 109
OLATHE IND     SUNNY     98  73  44 NW8       29.79F HX 108
OLATHE EXE     SUNNY     98  74  45 N6        29.80F HX 109
SALINA         CLOUDY   106  56  19 SE10      29.75F HX 105
TOPEKA BILLARD SUNNY     99  80  54 E7        29.77F HX 120
TOPEKA FORBES  MOSUNNY  101  77  46 NE6       29.79F HX 117
$$




USA.gov is the U.S. government's official web portal to all federal, state and local government web resources and services.